Погода в Людкове

Россия / Калужская область     54°36′10″N   34°43′25″E
темп.,
°C
ветер,
м/с
пор.,
м/с
влажн.,
%
обл.,
%
осадки,
мм/ч
давл.,
гПа
погр.,
м
19 мая, ср
ср1900:00+14юв229535 0.1 100246
03:00+13юв249698 0.1 100298
06:00+14юв41095100 0.2 1002404
09:00+17ююв598310 0.9 1003828
12:00+19ююв576995 1.0 10041348
15:00+19ю4769100 2.8 10051231
18:00+18ююв3675100 0.6 1004551
21:00+14вюв2492100 0.9 100575
20 мая, чт
чт2000:00+14вюв119598 0.5 100419
03:00+12св259963 0.6 1001127
06:00+12вюв51094100 1.5 1000686
09:00+11юв71294100 1.7 1000875
12:00+13юв61188100 0.3 1001902
15:00+12юв51095100 3.8 1001707
18:00+11юз5996100 0.9 1002780
21:00+10зюз61096100 0.9 1003953
21 мая, пт
пт2100:00+10з61395100 0.1 1005893
03:00+9з51294100 0.2 1007845
06:00+7зсз5139166 0.0 1011655
09:00+12з586845 0.0 1013817
12:00+16з4650100 0.0 10141727
15:00+17зюз464698 0.0 10141922
18:00+16з455641 0.0 10151382
21:00+10з358023 0.0 101784
22 мая, сб
сб2200:00+7з22862 0.0 101828
03:00+7з22850 0.0 101913
06:00+8зсз00800 0.0 101917
09:00+14юв22566 0.0 1019620
12:00+17ю23430 0.0 10191608
15:00+19ююв3443100 0.0 10171734
18:00+18юв24530 0.0 10171387
21:00+12вюв228016 0.0 101728
23 мая, вс
вс2300:00+10ююв249186 0.0 101668
03:00+9ююв259630 0.0 101589
06:00+10вюв38913 0.0 1014231
09:00+16юв35726 0.0 1012613
12:00+19юв466597 0.0 10101212
15:00+18ююв2482100 0.1 1008416
18:00+19юз3575100 0.2 1007878
21:00+14з3888100 0.3 1008246